Hourly Data

Hourly Data Report for July 22, 2014

All times are specified in Local Standard Time (LST). Add 1 hour to adjust for Daylight Saving Time where and when it is observed.

Metadata including Station Name, Province, Latitude, Longitude, Elevation, Climate ID, WMO ID, TC ID
WEKWEETI A
NORTHWEST TERRITORIES
Latitude: 64°11'27.000" N Longitude: 114°04'36.000" W Elevation: 368.20 m
Climate ID: 2203980 WMO ID: TC ID: YWE
Hourly Data Report for July 22, 2014
Temp Definition
°C

Dew Point Temp Definition
°C

Rel Hum Definition
%

Wind Dir Definition
10's deg
Wind Spd Definition
km/h

Visibility Definition
km

Stn Press Definition
kPa

Hmdx Definition

Wind Chill Definition

Weather Definition

00:00 Legend Double Dagger 14.1 8.4 68 22 8 6.4 97.12 Haze
01:00 Legend Double Dagger 13.7 8.7 71   0 6.4 97.15 Haze
02:00 Legend Double Dagger 12.7 8.4 75 22 5 4.8 97.18 Haze
03:00 Legend Double Dagger 13.0 7.7 70 23 5 4.8 97.20 Haze
04:00 Legend Double Dagger 12.7 8.4 75 20 5 4.0 97.23 Haze
05:00 Legend Double Dagger 12.6 8.3 75 18 5 3.2 97.26 Haze
06:00 Legend Double Dagger 12.7 9.2 79 17 4 1.6 97.27 Haze
07:00 Legend Double Dagger 14.2 10.1 76 LegendMM 4 2.4 97.28 Haze
08:00 Legend Double Dagger 15.7 7.8 59   0 2.8 97.29 Haze
09:00 Legend Double Dagger 17.1 8.6 57   0 2.4 97.30 Haze
10:00 Legend Double Dagger 19.1 7.6 47   0 1.6 97.31 Haze
11:00 Legend Double Dagger 20.3 6.6 41 27 5 2.8 97.30 Haze
12:00 Legend Double Dagger 21.1 5.3 35 31 5 2.4 97.30 Haze
13:00 Legend Double Dagger 21.6 8.4 42 27 13 2.8 97.30 Haze
14:00 Legend Double Dagger 22.2 6.4 35 28 8 2.4 97.30 Haze
15:00 Legend Double Dagger 22.4 7.7 38 26 11 2.4 97.30 Haze
16:00 Legend Double Dagger 22.4 7.8 39 27 8 2.0 97.28 Haze
17:00 Legend Double Dagger 22.2 7.7 39 26 9 2.0 97.27 Haze
18:00 Legend Double Dagger 22.3 7.0 37 23 4 3.2 97.26 Haze
19:00 Legend Double Dagger 21.6 8.2 42   0 2.8 97.25 Haze
20:00 Legend Double Dagger 20.9 9.7 48 23 5 3.2 97.24 Haze
21:00 Legend Double Dagger 19.8 10.3 54 16 4 3.2 97.25 Haze
22:00 Legend Double Dagger 18.7 9.6 55 12 4 3.2 97.25 Haze
23:00 Legend Double Dagger 16.9 9.7 62   0 3.2 97.29 Haze

Notes on Data Quality.

Legend
  • M = Missing
  • E = Estimated
  • NA = Not Available
  • ‡ = Partner data that is not subject to review by the National Climate Archives